When you browse on this site, cookies collect data to enhance your experience and personalize the content and advertising you see.
Visit our Privacy Policy to learn more. By continuing to use the site, you agree to this use of cookies and data.
EN

Hourly Weather Danaurovka

Today, 19 September, Saturday

Time Temperature Precipitation Wind Pressure Humidity
00:00 +10°C° 0 mm 2 mps 747 mmHg 71%
01:00 +11°C° 0 mm 3 mps 746 mmHg 68%
02:00 +11°C° 0 mm 3 mps 746 mmHg 66%
03:00 +11°C° 0 mm 4 mps 746 mmHg 64%
04:00 +11°C° 0 mm 4 mps 745 mmHg 65%
05:00 +11°C° 0 mm 3 mps 745 mmHg 67%
06:00 +10°C° 0 mm 3 mps 744 mmHg 69%
07:00 +10°C° 0.3 mm 3 mps 744 mmHg 75%
08:00 +10°C° 0.3 mm 3 mps 744 mmHg 80%
09:00 +10°C° 0.3 mm 3 mps 744 mmHg 86%
10:00 +10°C° 0.3 mm 3 mps 744 mmHg 88%
11:00 +10°C° 0.3 mm 2 mps 743 mmHg 90%
12:00 +10°C° 0.3 mm 2 mps 743 mmHg 92%
13:00 +10°C° 0.1 mm 2 mps 743 mmHg 90%
14:00 +12°C° 0.1 mm 1 mps 743 mmHg 88%
15:00 +11°C° 0.1 mm 0 mps 743 mmHg 86%
16:00 +11°C° 0.1 mm 1 mps 743 mmHg 86%
17:00 +10°C° 0.1 mm 2 mps 743 mmHg 86%
18:00 +10°C° 0.1 mm 3 mps 743 mmHg 86%
19:00 +8°C° 0 mm 4 mps 743 mmHg 86%
20:00 +8°C° 0 mm 5 mps 743 mmHg 86%
21:00 +7°C° 0 mm 6 mps 743 mmHg 85%
22:00 +7°C° 0 mm 6 mps 743 mmHg 86%
23:00 +6°C° 0 mm 5 mps 742 mmHg 86%

Tomorrow, 20 September, Sunday

Time Temperature Precipitation Wind Pressure Humidity
00:00 +6°C° 0 mm 5 mps 742 mmHg 86%
01:00 +5°C° 0 mm 5 mps 742 mmHg 87%
02:00 +5°C° 0 mm 5 mps 742 mmHg 89%
03:00 +3°C° 0 mm 5 mps 742 mmHg 90%
04:00 +3°C° 0 mm 5 mps 742 mmHg 91%
05:00 +3°C° 0 mm 5 mps 742 mmHg 92%
06:00 +4°C° 0 mm 4 mps 742 mmHg 93%
07:00 +5°C° 0 mm 5 mps 742 mmHg 88%
08:00 +6°C° 0 mm 5 mps 742 mmHg 83%
09:00 +7°C° 0 mm 5 mps 743 mmHg 78%
10:00 +7°C° 0.1 mm 5 mps 743 mmHg 79%
11:00 +7°C° 0.1 mm 5 mps 743 mmHg 80%
12:00 +7°C° 0.1 mm 6 mps 743 mmHg 81%
13:00 +8°C° 0.2 mm 6 mps 743 mmHg 79%
14:00 +8°C° 0.2 mm 7 mps 744 mmHg 77%
15:00 +8°C° 0.2 mm 7 mps 744 mmHg 76%
16:00 +6°C° 0.1 mm 7 mps 744 mmHg 77%
17:00 +6°C° 0.1 mm 7 mps 745 mmHg 78%
18:00 +5°C° 0.1 mm 7 mps 745 mmHg 80%
19:00 +5°C° 0 mm 6 mps 746 mmHg 81%
20:00 +5°C° 0 mm 6 mps 746 mmHg 83%
21:00 +4°C° 0 mm 6 mps 747 mmHg 85%
22:00 +4°C° 0 mm 6 mps 747 mmHg 86%
23:00 +4°C° 0 mm 6 mps 747 mmHg 87%

Day after tomorrow, 21 September, Monday

Time Temperature Precipitation Wind Pressure Humidity
00:00 +3°C° 0 mm 6 mps 748 mmHg 88%
01:00 +3°C° 0 mm 6 mps 748 mmHg 87%
02:00 +4°C° 0 mm 6 mps 748 mmHg 85%
03:00 +4°C° 0 mm 6 mps 748 mmHg 84%
04:00 +4°C° 0 mm 6 mps 749 mmHg 84%
05:00 +3°C° 0 mm 6 mps 749 mmHg 84%
06:00 +3°C° 0 mm 6 mps 749 mmHg 84%
07:00 +4°C° 0 mm 6 mps 749 mmHg 82%
08:00 +5°C° 0 mm 6 mps 749 mmHg 79%
09:00 +5°C° 0 mm 6 mps 749 mmHg 77%
10:00 +6°C° 0 mm 7 mps 749 mmHg 72%
11:00 +8°C° 0 mm 7 mps 749 mmHg 68%
12:00 +9°C° 0 mm 7 mps 749 mmHg 64%
13:00 +8°C° 0.3 mm 7 mps 748 mmHg 71%
14:00 +7°C° 0.3 mm 8 mps 748 mmHg 78%
15:00 +6°C° 0.3 mm 8 mps 748 mmHg 85%
16:00 +6°C° 0.8 mm 8 mps 747 mmHg 87%
17:00 +7°C° 0.8 mm 8 mps 747 mmHg 88%
18:00 +7°C° 0.8 mm 9 mps 746 mmHg 89%
19:00 +7°C° 0.6 mm 9 mps 746 mmHg 87%
20:00 +7°C° 0.6 mm 9 mps 746 mmHg 85%
21:00 +8°C° 0.6 mm 9 mps 746 mmHg 84%
22:00 +7°C° 0.1 mm 8 mps 746 mmHg 82%
23:00 +8°C° 0.1 mm 7 mps 747 mmHg 81%

22 September, Tuesday

Time Temperature Precipitation Wind Pressure Humidity
00:00 +7°C° 0.1 mm 6 mps 747 mmHg 80%
01:00 +7°C° 0 mm 6 mps 748 mmHg 83%
02:00 +5°C° 0 mm 6 mps 748 mmHg 86%
03:00 +4°C° 0 mm 6 mps 749 mmHg 89%
04:00 +4°C° 0 mm 6 mps 749 mmHg 90%
05:00 +4°C° 0 mm 6 mps 750 mmHg 90%
06:00 +4°C° 0 mm 6 mps 751 mmHg 91%
07:00 +5°C° 0 mm 6 mps 751 mmHg 86%
08:00 +6°C° 0 mm 5 mps 752 mmHg 82%
09:00 +7°C° 0 mm 5 mps 753 mmHg 78%
10:00 +8°C° 0 mm 5 mps 753 mmHg 74%
11:00 +9°C° 0 mm 5 mps 753 mmHg 70%
12:00 +10°C° 0 mm 5 mps 754 mmHg 66%
13:00 +10°C° 0 mm 5 mps 754 mmHg 64%
14:00 +10°C° 0 mm 5 mps 754 mmHg 62%
15:00 +12°C° 0 mm 5 mps 754 mmHg 60%
16:00 +11°C° 0 mm 4 mps 754 mmHg 63%
17:00 +10°C° 0 mm 4 mps 754 mmHg 67%
18:00 +8°C° 0 mm 4 mps 754 mmHg 71%
19:00 +8°C° 0 mm 4 mps 754 mmHg 72%
20:00 +8°C° 0 mm 4 mps 754 mmHg 73%
21:00 +8°C° 0 mm 5 mps 754 mmHg 75%
22:00 +9°C° 0 mm 5 mps 754 mmHg 77%
23:00 +9°C° 0 mm 5 mps 754 mmHg 79%

23 September, Wednesday

Time Temperature Precipitation Wind Pressure Humidity
00:00 +9°C° 0 mm 6 mps 753 mmHg 82%
01:00 +9°C° 0 mm 6 mps 753 mmHg 85%
02:00 +10°C° 0 mm 6 mps 753 mmHg 87%
03:00 +10°C° 0 mm 6 mps 753 mmHg 90%
04:00 +10°C° 0 mm 6 mps 753 mmHg 91%
05:00 +10°C° 0 mm 6 mps 753 mmHg 93%
06:00 +10°C° 0 mm 6 mps 753 mmHg 94%
07:00 +11°C° 0 mm 6 mps 753 mmHg 91%
08:00 +11°C° 0 mm 6 mps 754 mmHg 89%
09:00 +13°C° 0 mm 6 mps 754 mmHg 86%
10:00 +14°C° 0 mm 6 mps 754 mmHg 81%
11:00 +15°C° 0 mm 6 mps 754 mmHg 76%
12:00 +17°C° 0 mm 6 mps 754 mmHg 70%
13:00 +17°C° 0 mm 6 mps 754 mmHg 69%
14:00 +19°C° 0 mm 5 mps 754 mmHg 68%
15:00 +19°C° 0 mm 5 mps 755 mmHg 66%
16:00 +17°C° 0 mm 5 mps 755 mmHg 72%
17:00 +15°C° 0 mm 4 mps 755 mmHg 77%
18:00 +14°C° 0 mm 3 mps 755 mmHg 83%
19:00 +14°C° 0 mm 3 mps 755 mmHg 84%
20:00 +13°C° 0 mm 3 mps 755 mmHg 85%
21:00 +13°C° 0 mm 3 mps 756 mmHg 86%
22:00 +13°C° 0 mm 3 mps 756 mmHg 88%
23:00 +12°C° 0 mm 3 mps 756 mmHg 89%

24 September, Thursday

Time Temperature Precipitation Wind Pressure Humidity
00:00 +12°C° 0 mm 3 mps 756 mmHg 90%
01:00 +12°C° 0 mm 3 mps 756 mmHg 91%
02:00 +12°C° 0 mm 3 mps 757 mmHg 91%
03:00 +12°C° 0 mm 3 mps 757 mmHg 92%
04:00 +12°C° 0 mm 3 mps 757 mmHg 92%
05:00 +11°C° 0 mm 3 mps 757 mmHg 92%
06:00 +11°C° 0 mm 3 mps 757 mmHg 93%
07:00 +13°C° 0 mm 3 mps 758 mmHg 89%
08:00 +14°C° 0 mm 3 mps 758 mmHg 84%
09:00 +16°C° 0 mm 3 mps 758 mmHg 80%
10:00 +17°C° 0 mm 3 mps 758 mmHg 77%
11:00 +18°C° 0 mm 3 mps 758 mmHg 74%
12:00 +19°C° 0 mm 3 mps 758 mmHg 70%
13:00 +19°C° 0 mm 3 mps 758 mmHg 70%
14:00 +19°C° 0 mm 3 mps 758 mmHg 70%
15:00 +19°C° 0 mm 3 mps 759 mmHg 69%
16:00 +18°C° 0 mm 3 mps 759 mmHg 73%
17:00 +17°C° 0 mm 2 mps 759 mmHg 76%
18:00 +16°C° 0 mm 2 mps 759 mmHg 80%
19:00 +16°C° 0 mm 2 mps 759 mmHg 80%
20:00 +15°C° 0 mm 2 mps 759 mmHg 81%
21:00 +15°C° 0 mm 2 mps 759 mmHg 82%
22:00 +15°C° 0 mm 2 mps 759 mmHg 82%
23:00 +14°C° 0 mm 2 mps 759 mmHg 83%
Show more